• In Hungary
  • List of Countries
  • For 7 days
  • Water Temperature
  • Satellite Maps
  • Weather Map
  • News
  • Weather Widgets
  • user-avatar
    Login

    Hourly Weather Karniki

    Today, 21 July, Saturday

    Time Temperature Precipitation Wind Pressure Humidity
    00:00 +20°C° 0.1 mm 2 mps 734 mmHg 92%
    01:00 +19°C° 0.2 mm 2 mps 734 mmHg 93%
    02:00 +19°C° 0.2 mm 2 mps 734 mmHg 93%
    03:00 +19°C° 0 mm 2 mps 734 mmHg 94%
    04:00 +19°C° 0.4 mm 2 mps 734 mmHg 94%
    05:00 +19°C° 0.4 mm 2 mps 734 mmHg 94%
    06:00 +20°C° 0.4 mm 2 mps 734 mmHg 94%
    07:00 +21°C° 0.6 mm 2 mps 734 mmHg 91%
    08:00 +22°C° 0.6 mm 3 mps 734 mmHg 87%
    09:00 +24°C° 0.6 mm 3 mps 734 mmHg 84%
    10:00 +25°C° 1.3 mm 3 mps 734 mmHg 81%
    11:00 +26°C° 1.3 mm 4 mps 734 mmHg 78%
    12:00 +27°C° 1.3 mm 4 mps 734 mmHg 75%
    13:00 +27°C° 0.6 mm 4 mps 734 mmHg 74%
    14:00 +27°C° 0.6 mm 4 mps 734 mmHg 73%
    15:00 +27°C° 0.6 mm 5 mps 734 mmHg 72%
    16:00 +27°C° 0.9 mm 4 mps 734 mmHg 76%
    17:00 +26°C° 0.9 mm 4 mps 734 mmHg 79%
    18:00 +26°C° 0.9 mm 4 mps 734 mmHg 83%
    19:00 +25°C° 0.1 mm 4 mps 734 mmHg 86%
    20:00 +23°C° 0.1 mm 4 mps 734 mmHg 88%
    21:00 +21°C° 0.1 mm 4 mps 734 mmHg 91%
    22:00 +21°C° 0 mm 4 mps 734 mmHg 93%
    23:00 +21°C° 0 mm 4 mps 734 mmHg 94%

    Tomorrow, 22 July, Sunday

    Time Temperature Precipitation Wind Pressure Humidity
    00:00 +20°C° 0 mm 4 mps 735 mmHg 95%
    01:00 +20°C° 0 mm 4 mps 735 mmHg 96%
    02:00 +20°C° 0 mm 5 mps 735 mmHg 96%
    03:00 +20°C° 0 mm 5 mps 735 mmHg 97%
    04:00 +20°C° 0 mm 5 mps 735 mmHg 96%
    05:00 +20°C° 0 mm 5 mps 735 mmHg 96%
    06:00 +20°C° 0 mm 4 mps 735 mmHg 95%
    07:00 +20°C° 0 mm 5 mps 735 mmHg 94%
    08:00 +20°C° 0 mm 5 mps 735 mmHg 93%
    09:00 +20°C° 0 mm 5 mps 735 mmHg 92%
    10:00 +20°C° 0 mm 5 mps 736 mmHg 91%
    11:00 +21°C° 0 mm 5 mps 736 mmHg 90%
    12:00 +21°C° 0 mm 5 mps 736 mmHg 89%
    13:00 +21°C° 0 mm 5 mps 736 mmHg 88%
    14:00 +21°C° 0 mm 6 mps 736 mmHg 87%
    15:00 +22°C° 0 mm 6 mps 736 mmHg 85%
    16:00 +21°C° 0.1 mm 5 mps 736 mmHg 86%
    17:00 +21°C° 0.1 mm 5 mps 736 mmHg 87%
    18:00 +20°C° 0.1 mm 5 mps 736 mmHg 87%
    19:00 +20°C° 0 mm 5 mps 736 mmHg 88%
    20:00 +20°C° 0 mm 5 mps 736 mmHg 89%
    21:00 +19°C° 0 mm 5 mps 736 mmHg 90%
    22:00 +19°C° 0.1 mm 5 mps 736 mmHg 91%
    23:00 +19°C° 0.1 mm 5 mps 736 mmHg 91%

    Day after tomorrow, 23 July, Monday

    Time Temperature Precipitation Wind Pressure Humidity
    00:00 +19°C° 0.1 mm 5 mps 736 mmHg 92%
    01:00 +17°C° 0.1 mm 5 mps 736 mmHg 92%
    02:00 +17°C° 0.1 mm 5 mps 736 mmHg 93%
    03:00 +18°C° 0.1 mm 4 mps 736 mmHg 94%
    04:00 +17°C° 0.1 mm 5 mps 736 mmHg 94%
    05:00 +17°C° 0.1 mm 5 mps 736 mmHg 94%
    06:00 +17°C° 0.1 mm 5 mps 736 mmHg 94%
    07:00 +17°C° 0.1 mm 5 mps 736 mmHg 93%
    08:00 +17°C° 0.1 mm 6 mps 736 mmHg 92%
    09:00 +17°C° 0.1 mm 6 mps 737 mmHg 91%
    10:00 +19°C° 0.1 mm 6 mps 737 mmHg 90%
    11:00 +19°C° 0.1 mm 6 mps 737 mmHg 89%
    12:00 +19°C° 0.1 mm 6 mps 737 mmHg 88%
    13:00 +19°C° 0 mm 6 mps 737 mmHg 88%
    14:00 +19°C° 0 mm 6 mps 737 mmHg 88%
    15:00 +19°C° 0 mm 6 mps 737 mmHg 87%
    16:00 +19°C° 0 mm 6 mps 737 mmHg 88%
    17:00 +19°C° 0 mm 5 mps 736 mmHg 89%
    18:00 +19°C° 0 mm 5 mps 736 mmHg 90%
    19:00 +17°C° 0.1 mm 5 mps 736 mmHg 91%
    20:00 +17°C° 0.1 mm 5 mps 737 mmHg 92%
    21:00 +17°C° 0.1 mm 5 mps 737 mmHg 93%
    22:00 +17°C° 0.4 mm 5 mps 737 mmHg 94%
    23:00 +18°C° 0.4 mm 4 mps 737 mmHg 95%

    24 July, Tuesday

    Time Temperature Precipitation Wind Pressure Humidity
    00:00 +18°C° 0.4 mm 4 mps 737 mmHg 96%
    01:00 +18°C° 0.2 mm 4 mps 737 mmHg 96%
    02:00 +19°C° 0.2 mm 4 mps 737 mmHg 96%
    03:00 +19°C° 0.2 mm 5 mps 737 mmHg 97%
    04:00 +17°C° 0.7 mm 5 mps 737 mmHg 96%
    05:00 +17°C° 0.7 mm 5 mps 737 mmHg 96%
    06:00 +17°C° 0.7 mm 5 mps 737 mmHg 95%
    07:00 +17°C° 0.3 mm 5 mps 737 mmHg 95%
    08:00 +19°C° 0.3 mm 5 mps 737 mmHg 94%
    09:00 +19°C° 0.3 mm 5 mps 738 mmHg 93%
    10:00 +20°C° 0.2 mm 5 mps 738 mmHg 91%
    11:00 +21°C° 0.2 mm 5 mps 738 mmHg 89%
    12:00 +22°C° 0.2 mm 5 mps 738 mmHg 86%
    13:00 +23°C° 0.8 mm 5 mps 738 mmHg 84%
    14:00 +25°C° 0.8 mm 5 mps 738 mmHg 82%
    15:00 +26°C° 0.8 mm 5 mps 739 mmHg 79%
    16:00 +26°C° 0.4 mm 5 mps 739 mmHg 81%
    17:00 +25°C° 0.4 mm 5 mps 739 mmHg 82%
    18:00 +25°C° 0.4 mm 4 mps 739 mmHg 84%
    19:00 +23°C° 0 mm 4 mps 739 mmHg 86%
    20:00 +22°C° 0 mm 4 mps 740 mmHg 88%
    21:00 +21°C° 0 mm 4 mps 740 mmHg 90%
    22:00 +20°C° 0 mm 4 mps 740 mmHg 91%
    23:00 +20°C° 0 mm 4 mps 740 mmHg 91%

    25 July, Wednesday

    Time Temperature Precipitation Wind Pressure Humidity
    00:00 +20°C° 0 mm 4 mps 741 mmHg 91%
    01:00 +19°C° 0.2 mm 4 mps 741 mmHg 91%
    02:00 +19°C° 0.2 mm 4 mps 741 mmHg 91%
    03:00 +19°C° 0.2 mm 4 mps 741 mmHg 91%
    04:00 +18°C° 0.1 mm 4 mps 741 mmHg 90%
    05:00 +18°C° 0.1 mm 4 mps 741 mmHg 90%
    06:00 +18°C° 0.1 mm 4 mps 742 mmHg 89%
    07:00 +19°C° 0 mm 5 mps 742 mmHg 84%
    08:00 +20°C° 0 mm 5 mps 742 mmHg 79%
    09:00 +22°C° 0 mm 6 mps 742 mmHg 74%
    10:00 +22°C° 0 mm 6 mps 742 mmHg 71%
    11:00 +23°C° 0 mm 7 mps 742 mmHg 68%
    12:00 +24°C° 0 mm 7 mps 742 mmHg 64%
    13:00 +26°C° 0 mm 7 mps 742 mmHg 64%
    14:00 +26°C° 0 mm 8 mps 742 mmHg 63%
    15:00 +26°C° 0 mm 8 mps 742 mmHg 62%
    16:00 +24°C° 0 mm 7 mps 742 mmHg 65%
    17:00 +23°C° 0 mm 6 mps 742 mmHg 68%
    18:00 +23°C° 0 mm 5 mps 742 mmHg 71%
    19:00 +21°C° 0 mm 4 mps 743 mmHg 72%
    20:00 +20°C° 0 mm 4 mps 743 mmHg 74%
    21:00 +19°C° 0 mm 3 mps 743 mmHg 75%
    22:00 +19°C° 0 mm 3 mps 743 mmHg 78%
    23:00 +18°C° 0 mm 3 mps 743 mmHg 80%

    26 July, Thursday

    Time Temperature Precipitation Wind Pressure Humidity
    00:00 +18°C° 0 mm 3 mps 743 mmHg 83%
    01:00 +18°C° 0 mm 3 mps 744 mmHg 84%
    02:00 +18°C° 0 mm 3 mps 744 mmHg 86%
    03:00 +17°C° 0 mm 4 mps 744 mmHg 88%
    04:00 +17°C° 0 mm 4 mps 744 mmHg 88%
    05:00 +18°C° 0 mm 4 mps 744 mmHg 87%
    06:00 +18°C° 0 mm 4 mps 745 mmHg 86%
    07:00 +19°C° 0 mm 4 mps 745 mmHg 80%
    08:00 +21°C° 0 mm 5 mps 745 mmHg 74%
    09:00 +22°C° 0 mm 5 mps 745 mmHg 68%
    10:00 +24°C° 0 mm 6 mps 745 mmHg 66%
    11:00 +26°C° 0 mm 6 mps 745 mmHg 63%
    12:00 +27°C° 0 mm 6 mps 745 mmHg 60%
    13:00 +27°C° 0 mm 6 mps 745 mmHg 60%
    14:00 +28°C° 0 mm 6 mps 745 mmHg 60%
    15:00 +28°C° 0 mm 6 mps 745 mmHg 60%
    16:00 +28°C° 0.1 mm 5 mps 745 mmHg 64%
    17:00 +28°C° 0.1 mm 4 mps 745 mmHg 68%
    18:00 +27°C° 0.1 mm 3 mps 745 mmHg 73%
    19:00 +26°C° 0 mm 3 mps 745 mmHg 76%
    20:00 +24°C° 0 mm 3 mps 745 mmHg 79%
    21:00 +21°C° 0 mm 3 mps 745 mmHg 82%
    22:00 +21°C° 0 mm 3 mps 745 mmHg 84%
    23:00 +20°C° 0 mm 3 mps 745 mmHg 85%
    Show more